Weather Roundup
Issued by NWS

Home | Current Version | Previous Version | Text Only | Print | Product List | Glossary On
Versions: 1 2 3 4 5 6 7 8 9 10 11 12 13 14 15 16 17 18 19 20 21 22 23 24 25 26 27 28 29 30 31 32 33 34 35 36 37 38 39 40 41 42 43 44 45 46 47 48 49 50
619
NZUS93 KARX 010659
HRRWXR

CURRENT HOURLY OBSERVATIONS ACROSS
MUCH OF THE UPPER MISSISSIPPI VALLEY
NATIONAL WEATHER SERVICE LA CROSSE WI
200 AM CDT SUN MAY 01 2016


...SOUTHEAST MINNESOTA...


CITY           SKY/WX    TMP DP  RH WIND       PRES   REMARKS
ROCHESTER      CLOUDY    42  39  89 NE12      30.07S
ROCHESTER/MAYO CLOUDY    42  42 100 N5        30.08S
WINONA         CLOUDY    46  39  76 N3        30.08S
AUSTIN         CLOUDY    43  37  81 NE13      30.05S
ALBERT LEA     NOT AVBL
DODGE CENTER   CLOUDY    41  41 100 NE9       30.07S
PRESTON        CLOUDY    40  38  91 NE12      30.05F WCI  33
OWATONNA       DRIZZLE   45  39  81 NE7       30.09S
FARIBAULT      NOT AVBL
$$

...ELSEWHERE IN MINNESOTA...


CITY           SKY/WX    TMP DP  RH WIND       PRES   REMARKS
MINNEAPOLIS    CLOUDY    46  31  55 N7        30.12S
INTNL FALLS    CLEAR     37  29  72 NE6       30.26S WCI  32
DULUTH         CLEAR     35  27  72 NE8       30.21S WCI  29
RED WING       CLOUDY    46  37  71 CALM      30.09S
REDWOOD FALLS  CLOUDY    45  29  53 E8        30.12R
MANKATO        CLOUDY    45  37  76 NE9       30.10S
WORTHINGTON    LGT RAIN  42  40  92 NE16      30.08S
FAIRMONT       CLOUDY    43  36  75 NE14      30.07R
$$

...SOUTHWEST WISCONSIN...


CITY           SKY/WX    TMP DP  RH WIND       PRES   REMARKS
LA CROSSE      CLOUDY    45  40  82 N7        30.05F
PRAIRIE DU CHI CLOUDY    45  39  81 N5        30.00S
BOSCOBEL       CLOUDY    46  40  79 NE6       30.01S
LONE ROCK      NOT AVBL
PLATTEVILLE    CLOUDY    44  43  96 NE14G20   29.97R
FORT MC COY    CLOUDY    45  39  79 NE7       30.06S
MAUSTON-NEW LI NOT AVBL
VIROQUA        CLOUDY    42  39  89 NE9       30.02S
WIS DELLS      CLOUDY    42  39  88 NE8       30.02S
$$

...ELSEWHERE IN WISCONSIN...


CITY           SKY/WX    TMP DP  RH WIND       PRES   REMARKS
MILWAUKEE      CLOUDY    43  41  93 NE15      29.98R
MADISON        CLOUDY    44  40  85 NE13      29.99S
GREEN BAY      LGT RAIN  44  36  73 NE21      30.07S
EAU CLAIRE     NOT AVBL
BLACK RVR FLS  CLOUDY    44  43  97 CALM      30.07R
MEDFORD        CLOUDY    42  31  66 NE12      30.08S
WAUSAU         CLOUDY    47  29  49 NE7       30.07S
WIS RAPIDS     CLOUDY    48  30  49 NE9       30.07S
MARSHFIELD     CLOUDY    47  30  51 NE8       30.06S
RICE LAKE      CLOUDY    42  31  65 NE12      30.14F
$$

...NORTHEAST IOWA...


CITY           SKY/WX    TMP DP  RH WIND       PRES   REMARKS
WATERLOO       CLOUDY    44  42  93 NE12      29.98S FOG
DUBUQUE        CLOUDY    43  42  97 NE12      29.96R FOG
DECORAH        CLOUDY    43  41  93 NE7G14    30.01S
MASON CITY     LGT RAIN  41  40  96 NE14      30.03F FOG
CHARLES CITY   CLOUDY    43  43 100 NE18      30.01S
OELWEIN        CLOUDY    43  43 100 NE13G22   29.98R FOG
$$

...ELSEWHERE IN IOWA...


CITY           SKY/WX    TMP DP  RH WIND       PRES   REMARKS
DES MOINES     DRIZZLE   46  43  89 E10       29.94S FOG
IOWA CITY      CLOUDY    45  44  97 NE10      29.95S
FORT DODGE     CLOUDY    43  37  81 NE12      30.00S
MARSHALLTOWN   CLOUDY    44  42  93 E14       29.96S FOG
CEDAR RAPIDS   LGT RAIN  44  44 100 NE12      29.94S FOG
$$

...NORTHERN ILLINOIS...


CITY           SKY/WX    TMP DP  RH WIND       PRES   REMARKS
CHICAGO-OHARE  DRIZZLE   45  45 100 NE10      29.91S FOG
CHICAGO-MIDWAY DRIZZLE   47  44  90 NE12      29.90S FOG
MOLINE         CLOUDY    47  44  90 NE9       29.91F FOG
ROCKFORD       CLOUDY    47  44  90 NE8       29.95F
PEORIA         CLOUDY    49  48  97 NE8       29.87S FOG
$$

NOTE: "FAIR" INDICATES FEW OR NO CLOUDS BELOW 12,000 FEET WITH NO
SIGNIFICANT WEATHER AND/OR OBSTRUCTIONS TO VISIBILITY. WIND
SPEEDS ARE IN MILES-PER-HOUR.




USA.gov is the U.S. government's official web portal to all federal, state and local government web resources and services.